Rochester, NY

11:56 PM EDT on April 28, 2017 (GMT -0400)
Greater Rochester International

Weather History for KROC - October, 2014

Change the Weather History Date:

Wednesday, October 1, 2014

  Actual Average Record
Temperature  
Mean Temperature 62 °F 56 °F  
Max Temperature 69 °F 65 °F 86 °F (1877)
Min Temperature 55 °F 46 °F 31 °F (1993)
Degree Days  
Heating Degree Days 3 10  
Month to date heating degree days 3 10  
Since 1 July heating degree days 152 191  
Cooling Degree Days 0 0  
Month to date cooling degree days 0 0  
Year to date cooling degree days 532 534  
Growing Degree Days 13 (Base 50)    
Moisture  
Dew Point 59 °F    
Average Humidity 85    
Maximum Humidity 97    
Minimum Humidity 73    
Precipitation  
Precipitation T in 0.09 in 1.99 in (1945)
Month to date precipitation T 0.09  
Year to date precipitation 26.36 26.07  
Snow  
Snow 0.00 in 0.00 in T in (1940)
Month to date snowfall 0.0 0.0  
Since 1 July snowfall 0.0 0.0  
Since 1 September snowfall 0.0 0.0  
Snow Depth 0.00 in    
Sea Level Pressure  
Sea Level Pressure 30.03 in    
Wind  
Wind Speed 5 mph (ENE)    
Max Wind Speed 13 mph    
Max Gust Speed 16 mph    
Visibility 6 miles    
Events      
T = Trace of Precipitation, MM = Missing Value Source: NWS Daily Summary

Daily Weather History Graph

Daily Weather History Graph

Search for Another Location

Airport or City:

Trip Planner

Search our weather history database for the weather conditions in past years. The results will help you decide how hot, cold, wet, or windy it might be!

Date:

Astronomy

Oct. 01, 2014 Rise Set
Actual Time 7:08 AM EDT 6:51 PM EDT
Civil Twilight 6:39 AM EDT 7:20 PM EDT
Nautical Twilight 6:06 AM EDT 7:53 PM EDT
Astronomical Twilight 5:33 AM EDT 8:26 PM EDT
Moon 2:13 PM EDT (10/1) No Moon Set
Length of Visible Light 12h 40m
Length of Day
11h 43m
Waxing Crescent, 48% of the Moon is Illuminated
Oct 1
Waxing Crescent
Oct 1
First Quarter
Oct 8
Full
Oct 15
Last Quarter
Oct 23
New

Hourly Weather History & Observations

Time (EDT) Temp. Dew Point Humidity Pressure Visibility Wind Dir Wind Speed Gust Speed Precip Events Conditions
12:54 AM 57.9 °F 55.0 °F 90% 29.89 in 10.0 mi SW 3.5 mph - N/A   Mostly Cloudy
1:54 AM 57.9 °F 55.0 °F 90% 29.89 in 10.0 mi SW 5.8 mph - N/A   Mostly Cloudy
2:54 AM 57.0 °F 55.0 °F 93% 29.89 in 8.0 mi WSW 3.5 mph - N/A   Mostly Cloudy
3:00 AM - - N/A% - - North - - N/A   Unknown
3:54 AM 57.0 °F 55.0 °F 93% 29.88 in 6.0 mi Calm Calm - N/A   Mostly Cloudy
4:54 AM 60.8 °F 59.0 °F 94% 30.01 in 5.0 mi NNE 5.8 mph - N/A   Overcast
5:54 AM 61.0 °F 59.0 °F 93% 30.03 in 5.0 mi NNE 6.9 mph - N/A   Overcast
6:54 AM 62.1 °F 59.0 °F 90% 30.04 in 6.0 mi NNE 6.9 mph - N/A   Overcast
7:54 AM 62.1 °F 59.0 °F 90% 30.06 in 4.0 mi ENE 4.6 mph - N/A   Overcast
8:54 AM 61.0 °F 59.0 °F 93% 30.08 in 2.0 mi NE 9.2 mph - N/A   Overcast
9:09 AM 61.0 °F 60.1 °F 97% 30.07 in 2.5 mi NE 8.1 mph - 0.00 in   Light Drizzle
9:32 AM 61.0 °F 59.0 °F 93% 30.07 in 4.0 mi NE 5.8 mph - 0.00 in   Light Drizzle
9:54 AM 61.0 °F 59.0 °F 93% 30.09 in 4.0 mi NE 8.1 mph - 0.00 in   Light Drizzle
10:16 AM 62.1 °F 60.1 °F 93% 30.08 in 2.5 mi NE 6.9 mph - 0.00 in   Light Drizzle
10:54 AM 62.1 °F 60.1 °F 93% 30.09 in 2.5 mi East 6.9 mph - 0.00 in   Light Drizzle
11:54 AM 62.1 °F 60.1 °F 93% 30.10 in 3.0 mi East 4.6 mph - 0.00 in   Light Drizzle
12:15 PM 63.0 °F 59.0 °F 87% 30.09 in 6.0 mi East 3.5 mph - 0.00 in   Light Drizzle
12:23 PM 63.0 °F 60.1 °F 90% 30.08 in 6.0 mi ENE 3.5 mph - 0.00 in   Overcast
12:54 PM 64.0 °F 59.0 °F 84% 30.09 in 7.0 mi East 4.6 mph - 0.00 in   Overcast
1:07 PM 64.9 °F 60.1 °F 84% 30.08 in 7.0 mi ESE 3.5 mph - N/A   Overcast
1:54 PM 71.1 °F 59.0 °F 66% 29.90 in 10.0 mi NNE 13.8 mph - N/A   Scattered Clouds
2:54 PM 66.9 °F 59.0 °F 76% 30.06 in 10.0 mi South 4.6 mph - N/A   Overcast
3:54 PM 68.0 °F 59.0 °F 73% 30.06 in 10.0 mi Calm Calm - N/A   Overcast
4:14 PM 64.9 °F 59.0 °F 81% 29.90 in 10.0 mi NE 13.8 mph - N/A   Mostly Cloudy
4:45 PM 68.0 °F 60.1 °F 76% 30.05 in 10.0 mi NNE 8.1 mph - N/A   Mostly Cloudy
4:54 PM 68.0 °F 60.1 °F 76% 30.06 in 9.0 mi NNE 8.1 mph - N/A   Partly Cloudy
5:26 PM 63.0 °F 57.9 °F 84% 29.91 in 8.0 mi NE 12.7 mph - N/A   Overcast
5:36 PM 64.9 °F 60.1 °F 84% 30.06 in 7.0 mi NNE 11.5 mph - N/A   Partly Cloudy
5:38 PM 64.9 °F 60.1 °F 84% 30.06 in 8.0 mi NNE 10.4 mph - N/A   Overcast
5:47 PM 64.0 °F 60.1 °F 87% 30.06 in 7.0 mi North 11.5 mph - N/A   Overcast
5:54 PM 64.0 °F 60.1 °F 87% 30.07 in 6.0 mi NE 9.2 mph - N/A   Overcast
6:54 PM 63.0 °F 59.0 °F 87% 29.94 in 7.0 mi NE 8.1 mph - N/A   Mostly Cloudy
7:22 PM 63.0 °F 59.0 °F 87% 29.93 in 8.0 mi NNE 8.1 mph - N/A   Mostly Cloudy
7:54 PM 62.1 °F 57.9 °F 86% 29.96 in 8.0 mi ENE 9.2 mph - N/A   Mostly Cloudy
8:39 PM 60.1 °F 57.0 °F 90% 30.10 in 7.0 mi East 6.9 mph - N/A   Scattered Clouds
8:54 PM 60.1 °F 57.0 °F 90% 30.11 in 7.0 mi East 4.6 mph - N/A   Partly Cloudy
9:54 PM 59.0 °F 57.0 °F 93% 30.11 in 6.0 mi SE 3.5 mph - N/A   Clear
10:54 PM 59.0 °F 57.0 °F 93% 30.11 in 5.0 mi East 3.5 mph - N/A   Partly Cloudy
11:05 PM 59.0 °F 57.0 °F 93% 30.10 in 5.0 mi ESE 4.6 mph - N/A   Mostly Cloudy
11:54 PM 57.9 °F 55.9 °F 93% 30.10 in 3.0 mi Calm Calm - N/A   Scattered Clouds